STARLINK-1046, 44751

Orbit data source: Space-Track

STARLINK-1046, 44751 is a payload satellite owned by SpaceX/Seattle (US) in LEO that was launched on Mon, 11 Nov 2019 UTC via an FALCON 9 launch vehicle from the Air Force Eastern Test Range (AFETR). Payload-class satellites include a variety of spacecraft equipped with specific instruments for various scientific and technological missions. These include communications satellites like Starlink; space stations such as the ISS; scientific satellites like the Hubble; Earth observation satellites from companies like Planet Labs, Umbra, and HawkEye 360; GPS; miniature CubeSats for education and research; and military/defense satellites.

Loading next visibility...
Identifier
44751, 2019-074AQ
Orbit
LEO
Country
Flag of USUS
Related business
Manufacturer
SpaceX/Seattle
Mission
Operational Commercial Communications
Bus & Motor
STARLINK, Unknown motor
Mass
260 kg wet, ~248 kg dry
Launch date (UTC)
2019-11-11 (6 years ago)
Launch vehicle
FALCON 9
Launch site
Air Force Eastern Test Range (AFETR)
Object type
Payload
Rocket body
Debris
Shape & HBR
Box + 1 Pan, 10.1 m
Radar Cross Section
13.562 m², Large (>1 m²)

Expand to show TLE details & history
Last TLE update: 17 hours ago

TLE from 17 hours ago
0 STARLINK-1046
1 44751U 19074AQ  25286.41114942  .00010845  00000-0  74567-3 0  9991
2 44751  53.0519 167.7789 0003753  83.6107 276.5309 15.06406753325991
Epoch: 2025-10-13T09:52Z
TLE epoch observation values (Epoch: 2025-10-13T09:52:03.309Z)
Latitude
-0.00006°
Longitude
-2.44925°
Altitude
547.775 km
Speed
7.589 km/s
True Right ascension
11h 11m 06s
True Declination
0° 00' 00"
Sunlit
Object was in daylight at epoch
Visualization orbit readout
Latitude
Unknown
Longitude
Unknown
Altitude
Unknown
Speed
Unknown
Apparent Right ascension
Unknown
Apparent Declination
Unknown
Sunlit
N/A
Visualization observer readout
Local Sidereal Time
21:24:31
Azimuth
Unknown
Elevation
Unknown
Doppler factor
Unknown
Orbital elements
Apogee altitude
550.061 km
Perigee altitude
544.863 km
Semi-major axis
6,925.599 km
Eccentricity
0.00038
Inclination
53.0519°
RAAN
167.7789°
Arg. of periapsis
83.6107°
True anomaly
276.48817°
Mean anomaly
276.5309°
Eccentric anomaly
276.50954°
Mean motion
3.7658 °/min
Orbital period
95.6 mins
BSTAR
0.00074567
Loading maneuver chart data...
Computing Atmospheric mass density...
Loading historical data...
Loading historical data...
Loading historical data...
Loading historical data...
Loading historical data...
Loading historical data...
Loading historical data...

Documentation

Showing up to 5 results
|